{"data":{"norad_id":64083,"epoch":"2026-09-20T04:29:47.478048Z","epoch_age_seconds":170525,"freshness":"FRESH","line1":"1 64083U 25107V   26263.18735507  .00007079  00000+0  26645-3 0  9999","line2":"2 64083  42.9988 183.3630 0001452 268.3080  91.7605 15.27587429 74779","mean_motion":15.27587429,"eccentricity":0.0001452,"inclination_deg":42.9988,"raan_deg":183.363,"arg_perigee_deg":268.308,"mean_anomaly_deg":91.7605,"bstar":0.00026645,"rev_number":7477,"period_min":94.266290273327,"perigee_km":482.03061004007,"apogee_km":484.02309202241,"semimajor_km":6861.1638510312,"source":"CELESTRAK","updated_at":"2026-09-21T09:00:35.225273Z"}}